Regional Weather Roundup
Issued by NWS

Home | Current Version | Previous Version | Graphics & Text | Print | Product List | Glossary On
Versions: 1 2 3 4 5 6 7 8 9 10 11 12 13 14 15 16 17 18 19 20 21 22 23 24 25 26 27 28 29 30 31 32 33 34 35 36 37 38 39 40 41 42 43 44 45 46 47 48 49 50
000
ASUS45 KSLC 280010
RWRUT

UTAH REGIONAL WEATHER ROUNDUP
NATIONAL WEATHER SERVICE SALT LAKE CITY UT
500 PM MST TUE JAN 27 2015

UTZ001>011-023>025-280100-

NORTHERN UTAH

CITY           SKY/WX    TMP DP  RH WIND       PRES   REMARKS
BRIGHAM CITY   CLOUDY    45  39  79 CALM      30.16F
HILL AFB       MOCLDY    49  29  45 N6        30.15F
LOGAN          CLOUDY    41  35  79 CALM      30.16F
OGDEN          CLOUDY    49  37  63 N6        30.14F
PROVO AIRPORT  MOCLDY    54  37  54 SE7       30.18S
SALT LAKE CITY PTCLDY    50  37  61 CALM      30.13F
VERNAL         CLOUDY    43  26  51 CALM      30.22F
WENDOVER       MOCLDY    46  34  61 CALM      30.13F
HEBER CITY     CLOUDY    43  32  65 SW12      30.18S
WEST JORDAN    CLEAR     52  37  58 S12       30.15F

$$

UTZ012>022-026-027-280100-

SOUTHERN/CENTRAL UTAH

CITY           SKY/WX    TMP DP  RH WIND       PRES   REMARKS
BLANDING       MOCLDY    50  33  51 CALM      30.33F
BRYCE CANYON   PTCLDY    39  33  79 SE8       30.28F WCI  33
CEDAR CITY     CLEAR     50  36  58 SW14      30.21S
DELTA          CLEAR     54  34  46 SW16      30.17S
MILFORD        MOCLDY    53  31  42 SW18G25   30.19S
MOAB/CYNLANDS  CLOUDY    49  33  54 NW6       30.22S
PRICE          CLOUDY    44  26  49 CALM      30.24S
ST GEORGE      PTCLDY    59  45  58 W13       30.21S
KANAB            N/A     52  39  62 CALM      30.28S

$$

REGIONAL REPORTS     COLORADO/ARIZONA

CITY           SKY/WX    TMP DP  RH WIND       PRES   REMARKS
CRAIG, CO      CLOUDY    37  29  72 CALM      30.21F
GRAND JUNCTION PTCLDY    49  29  46 NW5       30.23F
RIFLE          CLOUDY    48  27  44 SW8       30.22S
MONTROSE       CLOUDY    50  25  37 N5        30.25S
CORTEZ         CLEAR     54  34  46 NW5       30.26F
PAGE, AZ       NOT AVBL
GRAND CANYON   PTCLDY    49  36  61 SW12      30.28S
KINGMAN        PTCLDY    60  46  59 SW13      30.21S
FLAGSTAFF      PTCLDY    48  33  56 W9        30.30S

$$

REGIONAL REPORTS    NEVADA/IDAHO/WYOMING

CITY           SKY/WX    TMP DP  RH WIND       PRES   REMARKS
LAS VEGAS, NV  MOSUNNY   62  48  60 CALM      30.15S
ELY            MOCLDY    42  35  76 S14       30.18F
ELKO           LGT RAIN  43  40  89 SW7       30.12R
POCATELLO, ID  MOCLDY    45  39  79 VRB6      30.12F
BURLEY         CLOUDY    50  37  61 S9        30.08F
EVANSTON, WY   MOCLDY    42  31  64 W12       30.18S
ROCK SPRINGS   PTCLDY    44  26  49 W8        30.15F
KEMMERER       PTCLDY    39  30  70 W7        30.17S WCI  34

$$


USA.gov is the U.S. government's official web portal to all federal, state and local government web resources and services.